Terug naar catalogus

SL-16 DEB

ActiefPO
NORAD 43369·DEBRIS·🇷🇺 Russia

Gelanceerd Dec 10, 2001 vanaf Baikonur Cosmodrome

Loading…

Volgende Passages (komende 24 uur)

TLE

VerouderendSource: Space-Track

Epoch: Sep 7, 2026, 13:22 UTC

1 43369U 01056N   26250.55701566  .00003186  00000-0  10979-2 0  9993
2 43369  99.2793 162.3674 0072406  75.9390  48.8313 14.35203837642866

Volg SL-16 DEB in realtime met AllMySat

Download on the App Store